Havre, MT

6:31 AM MST on February 19, 2017 (GMT -0700)
Havre City-County

Weather History for KHVR - August, 2014

Change the Weather History Date:

Monday, August 4, 2014

  Actual Average Record
Temperature  
Mean Temperature 72 °F 71 °F  
Max Temperature 90 °F 87 °F 103 °F (1961)
Min Temperature 53 °F 55 °F 41 °F (1978)
Degree Days  
Heating Degree Days 0 1  
Month to date heating degree days 0 2  
Since 1 June heating degree days 175 165  
Since 1 July heating degree days 0 32  
Cooling Degree Days 7 7  
Month to date cooling degree days 32 28  
Year to date cooling degree days 246 249  
Since 1 June cooling degree days 239 238  
Growing Degree Days 22 (Base 50)    
Moisture  
Dew Point 53 °F    
Average Humidity 59    
Maximum Humidity 93    
Minimum Humidity 24    
Precipitation  
Precipitation 0.00 in 0.04 in 1.36 in (1922)
Month to date precipitation 0.03 0.14  
Year to date precipitation 6.67 7.70  
Snow  
Snow 0.00 in 0.00 in 0.00 in (1999)
Month to date snowfall 0.0 0.0  
Since 1 June snowfall 0.0 0.0  
Since 1 July snowfall 0.0 0.0  
Snow Depth 0.00 in    
Sea Level Pressure  
Sea Level Pressure 30.01 in    
Wind  
Wind Speed 7 mph (SW)    
Max Wind Speed 24 mph    
Max Gust Speed 28 mph    
Visibility 10 miles    
Events      
T = Trace of Precipitation, MM = Missing Value Source: NWS Daily Summary

Daily Weather History Graph

Daily Weather History Graph

Search for Another Location

Airport or City:

Trip Planner

Search our weather history database for the weather conditions in past years. The results will help you decide how hot, cold, wet, or windy it might be!

Date:

Astronomy

Aug. 04, 2014 Rise Set
Actual Time 5:57 AM MDT 8:51 PM MDT
Civil Twilight 5:21 AM MDT 9:28 PM MDT
Nautical Twilight 4:34 AM MDT 10:14 PM MDT
Astronomical Twilight 3:36 AM MDT 11:11 PM MDT
Moon 3:05 PM MDT (8/4) 12:10 AM MDT (8/4)
Length of Visible Light 16h 07m
Length of Day
14h 54m
First Quarter, 58% of the Moon is Illuminated
Aug 4
First Quarter
Aug 10
Full
Aug 17
Last Quarter
Aug 25
New
Sep 2
First Quarter

Hourly Weather History & Observations

Time (MDT) Temp. Heat Index Dew Point Humidity Pressure Visibility Wind Dir Wind Speed Gust Speed Precip Events Conditions
12:53 AM 64.0 °F - 57.0 °F 78% 30.03 in 10.0 mi East 5.8 mph - N/A   Clear
1:53 AM 64.0 °F - 55.0 °F 73% 30.03 in 10.0 mi Calm Calm - N/A   Clear
2:53 AM 59.0 °F - 53.6 °F 82% 30.07 in 10.0 mi Calm Calm - N/A   Clear
3:53 AM 55.4 °F - 51.8 °F 88% 30.08 in 10.0 mi West 6.9 mph - N/A   Clear
4:53 AM 55.0 °F - 52.0 °F 89% 30.04 in 10.0 mi SSW 9.2 mph - N/A   Clear
5:53 AM 55.0 °F - 52.0 °F 89% 30.05 in 10.0 mi WSW 5.8 mph - N/A   Clear
6:53 AM 55.9 °F - 53.1 °F 90% 30.06 in 10.0 mi WSW 9.2 mph - N/A   Clear
7:53 AM 61.0 °F - 55.0 °F 81% 30.06 in 10.0 mi West 6.9 mph - N/A   Clear
8:53 AM 66.0 °F - 55.9 °F 70% 30.06 in 10.0 mi West 3.5 mph - N/A   Clear
9:53 AM 71.1 °F - 57.0 °F 61% 30.06 in 10.0 mi West 3.5 mph - N/A   Clear
10:53 AM 75.9 °F - 57.0 °F 52% 30.06 in 10.0 mi SSW 4.6 mph - N/A   Clear
11:53 AM 81.0 °F 81.0 °F 57.0 °F 44% 30.04 in 10.0 mi Variable 3.5 mph - N/A   Clear
12:53 PM 82.9 °F 82.1 °F 55.9 °F 39% 30.02 in 10.0 mi SSE 4.6 mph - N/A   Clear
1:53 PM 84.9 °F 83.2 °F 53.1 °F 33% 30.00 in 10.0 mi Calm Calm - N/A   Partly Cloudy
2:53 PM 88.0 °F - 51.1 °F 28% 29.99 in 10.0 mi Variable 3.5 mph - N/A   Partly Cloudy
3:53 PM 89.1 °F - 48.9 °F 25% 29.98 in 10.0 mi North 5.8 mph - N/A   Clear
4:53 PM 89.1 °F - 48.0 °F 24% 29.96 in 10.0 mi ENE 4.6 mph - N/A   Clear
5:53 PM 88.0 °F - 46.9 °F 24% 29.95 in 10.0 mi Calm Calm - N/A   Clear
6:53 PM 84.0 °F - 51.1 °F 32% 29.96 in 10.0 mi ENE 19.6 mph 25.3 mph N/A   Clear
7:53 PM 79.0 °F - 55.9 °F 45% 29.96 in 10.0 mi East 19.6 mph - N/A   Clear
8:53 PM 75.9 °F - 55.9 °F 50% 29.95 in 10.0 mi ESE 12.7 mph - N/A   Clear
9:53 PM 75.9 °F - 54.0 °F 46% 29.96 in 10.0 mi ESE 10.4 mph - N/A   Clear
10:53 PM 73.0 °F - 53.1 °F 49% 29.98 in 10.0 mi SW 8.1 mph - N/A   Clear
11:53 PM 71.1 °F - 52.0 °F 51% 29.98 in 10.0 mi WSW 6.9 mph - N/A   Scattered Clouds